Regional Weather Roundup
Issued by NWS Sioux Falls, SD

Home | Current Version | Previous Version | Graphics & Text | Print | Product List | Glossary On
Versions: 1 2 3 4 5 6 7 8 9 10 11 12 13 14 15 16 17 18 19 20 21 22 23 24 25 26 27 28 29 30 31 32 33 34 35 36 37 38 39 40 41 42 43 44 45 46 47 48 49 50
000
ASUS43 KFSD 281302
RWRFSD

WEATHER ROUNDUP FOR SE SOUTH DAKOTA/SW MINNESOTA/NW IOWA
NATIONAL WEATHER SERVICE SIOUX FALLS SD
700 AM CST SAT FEB 28 2015

NOTE: "FAIR" INDICATES FEW OR NO CLOUDS BELOW 12,000 FEET WITH NO
SIGNIFICANT WEATHER AND OR OBSTRUCTIONS TO VISIBILITY.


SDZ038>040-050-052>070-281400-
SOUTHEAST SOUTH DAKOTA

CITY           SKY/WX    TMP DP  RH WIND       PRES   REMARKS
CHAMBERLAIN    NOT AVBL
HURON          PTCLDY     5  -1  76 S14       30.27F WCI -12
MADISON        FAIR       0   0 100 S13       30.31S WCI -18
MITCHELL       CLEAR      7   1  76 S9        30.32F WCI  -7
SIOUX FALLS    PTCLDY     4  -3  73 S10       30.37S WCI -11
WINNER         FAIR      12   2  64 S14       30.17F WCI  -3
YANKTON        CLEAR      7   0  72 S7        30.38F WCI  -5
$$

MNZ071-072-080-081-089-090-097-098-281400-
SOUTHWEST MINNESOTA

CITY           SKY/WX    TMP DP  RH WIND       PRES   REMARKS
FAIRMONT       PTCLDY    -8 -11  84 S9        30.45F WCI -25
JACKSON        PTCLDY     0  -6  78 S10       30.43S WCI -17
LUVERNE        PTCLDY     0  -6  78 S6        30.40F WCI -12
MARSHALL       CLEAR      3  -6  66 S13       30.39S WCI -14
MONTEVIDEO     PTCLDY     0  -4  85 S8        30.39F WCI -15
PIPESTONE      PTCLDY    -2  -8  78 S8        30.34F WCI -17
REDWOOD FALLS  PTCLDY    -4  -9  79 S8        30.43F WCI -19
TRACY          PTCLDY     4  -3  71 S13       30.38F WCI -13
WINDOM         PTCLDY     0  -6  78 CALM      30.41F
WORTHINGTON    PTCLDY    21 -11  23 S9        30.41S WCI  11
$$

IAZ001>003-012>014-020>022-031-032-NEZ013-014-SDZ071-281400-
NORTHWEST IOWA

CITY           SKY/WX    TMP DP  RH WIND       PRES   REMARKS
DENISON        PTCLDY     1  -4  78 CALM      30.46F
ESTHERVILLE    MOCLDY   -11 -15  82 S10       30.45F WCI -30
LE MARS        PTCLDY    -6  -9  84 CALM      30.45F
ORANGE CITY    PTCLDY     1  -4  78 SE3       30.41F
SIOUX CITY     PTCLDY     3  -3  76 SE8       30.45F WCI -10
SPENCER        PTCLDY    -3  -9  75 S10       30.45F WCI -20
$$

ABBREVIATIONS USED IN REMARKS
   TC - TEMPERATURE IN CELSIUS
  WCI - WIND CHILL INDEX
   HX - HEAT INDEX
  VSB - VISIBILITY




USA.gov is the U.S. government's official web portal to all federal, state and local government web resources and services.